Location: Buckeye Ditch
(40.9104°N, 122.9517°W)
Time: 13:22:18
(UTC+00:00)

Tiros 1 - All Passes

Search period start: 18 May 2025 00:00
Search period end: 28 May 2025 00:00
Orbit: 620 x 651 km, 48.4° (Epoch: 17 May)

Date Brightness Start Highest point End Pass type
(mag) Time Alt. Az. Time Alt. Az. Time Alt. Az.
18 May - 00:37:23 10° S 00:40:06 16° SE 00:42:52 10° E daylight
18 May - 02:16:54 10° SW 02:21:28 79° SSE 02:26:06 10° ENE daylight
18 May - 03:59:24 10° W 04:03:43 38° NNW 04:08:04 10° NE visible
18 May - 05:42:13 10° WNW 05:46:27 34° N 05:50:43 10° ENE visible
18 May - 07:24:14 10° WNW 07:28:54 73° NNE 07:33:36 10° ESE visible
18 May - 09:06:39 10° W 09:10:33 26° SW 09:14:27 10° SSE visible
19 May - 00:57:58 10° SSW 01:02:03 33° SE 01:06:10 10° ENE daylight
19 May - 02:39:17 10° WSW 02:43:48 60° NNW 02:48:24 10° ENE daylight
19 May - 04:22:11 10° WNW 04:26:21 32° N 04:30:34 10° ENE visible
19 May - 06:04:37 10° NW 06:09:03 42° NNE 06:13:31 10° E visible
19 May - 07:46:34 10° WNW 07:51:11 63° SW 07:55:49 10° SE visible
19 May - 09:30:36 10° WSW 09:32:26 12° SW 09:34:16 10° SSW night (unlit)
19 May - 23:40:59 10° SSE 23:42:55 13° SE 23:44:51 10° ESE daylight
20 May - 01:19:38 10° SW 01:24:09 67° SE 01:28:44 10° ENE daylight
20 May - 03:01:57 10° W 03:06:18 41° NNW 03:10:42 10° NE daylight
20 May - 04:44:50 10° WNW 04:49:00 33° N 04:53:14 10° ENE visible
20 May - 06:26:54 10° WNW 06:31:32 64° NNE 06:36:11 10° ESE visible
20 May - 08:09:09 10° WNW 08:13:17 32° SW 08:17:26 10° SSE visible
21 May - 00:00:58 10° SSW 00:04:48 27° SE 00:08:39 10° E daylight
21 May - 01:41:53 10° WSW 01:46:27 69° NNW 01:51:03 10° ENE daylight
21 May - 03:24:44 10° WNW 03:28:54 33° N 03:33:07 10° ENE daylight
21 May - 05:07:17 10° NW 05:11:38 39° NNE 05:16:01 10° E visible
21 May - 06:49:12 10° WNW 06:53:51 75° SSW 06:58:32 10° SE visible
21 May - 08:32:32 10° W 08:35:13 15° SW 08:37:54 10° SSW visible
22 May - 00:22:24 10° SW 00:26:51 55° SE 00:31:20 10° ENE daylight
22 May - 02:04:30 10° W 02:08:53 44° NNW 02:13:20 10° NE daylight
22 May - 03:47:25 10° WNW 03:51:34 32° N 03:55:45 10° ENE daylight
22 May - 05:29:35 10° WNW 05:34:09 56° NNE 05:38:44 10° ESE visible
22 May - 07:11:42 10° WNW 07:16:00 38° SW 07:20:20 10° SSE visible
22 May - 23:04:02 10° S 23:07:33 22° SE 23:11:05 10° E daylight
23 May - 00:44:31 10° WSW 00:49:05 80° NNW 00:53:42 10° ENE daylight
23 May - 02:27:16 10° WNW 02:31:29 34° N 02:35:42 10° ENE daylight
23 May - 04:09:55 10° NW 04:14:12 36° NNE 04:18:31 10° E visible
23 May - 05:51:52 10° WNW 05:56:30 88° SSW 06:01:11 10° ESE visible
23 May - 07:34:44 10° W 07:37:58 19° SW 07:41:12 10° S visible
23 May - 23:25:13 10° SW 23:29:33 45° SE 23:33:55 10° ENE daylight
24 May - 01:07:03 10° W 01:11:29 49° NNW 01:15:58 10° NE daylight
24 May - 02:50:00 10° WNW 02:54:07 32° N 02:58:16 10° ENE daylight
24 May - 04:32:14 10° NW 04:36:44 50° NNE 04:41:16 10° E visible
24 May - 06:14:16 10° WNW 06:18:42 46° SW 06:23:10 10° SE visible
24 May - 22:07:13 10° S 22:10:18 18° SE 22:13:24 10° E daylight
24 May - 23:47:10 10° WSW 23:51:44 88° SSE 23:56:20 10° ENE daylight
25 May - 01:29:47 10° W 01:34:02 36° N 01:38:18 10° ENE daylight
25 May - 03:12:32 10° WNW 03:16:45 34° N 03:21:00 10° ENE daylight
25 May - 04:54:30 10° WNW 04:59:08 80° NNE 05:03:48 10° ESE visible
25 May - 06:37:05 10° W 06:40:43 23° SW 06:44:20 10° S visible
25 May - 22:28:03 10° SSW 22:32:15 37° SE 22:36:28 10° ENE daylight
26 May - 00:09:36 10° W 00:14:05 55° NNW 00:18:36 10° ENE daylight
26 May - 01:52:32 10° WNW 01:56:39 32° N 02:00:47 10° ENE daylight
26 May - 03:34:54 10° NW 03:39:19 45° NNE 03:43:46 10° E daylight
26 May - 05:16:51 10° WNW 05:21:22 55° SW 05:25:55 10° SE visible
26 May - 07:02:18 10° SW 07:02:33 10° SW 07:02:47 10° SW visible
26 May - 21:10:33 10° SSE 21:13:03 15° SE 21:15:33 10° E daylight
26 May - 22:49:50 10° SW 22:54:23 75° SSE 22:58:57 10° ENE daylight
27 May - 00:32:18 10° W 00:36:35 38° NNW 00:40:54 10° NE daylight
27 May - 02:15:08 10° WNW 02:19:18 33° N 02:23:29 10° ENE daylight
27 May - 03:57:09 10° WNW 04:01:45 70° NNE 04:06:23 10° ESE visible
27 May - 05:39:30 10° W 05:43:25 27° SW 05:47:21 10° SSE visible
27 May - 21:30:58 10° SSW 21:34:57 31° SE 21:38:58 10° ENE daylight
27 May - 23:12:09 10° WSW 23:16:41 63° NNW 23:21:14 10° ENE daylight
